Погода в Новоангарске

Россия / Красноярский край     58°07′45″N   93°29′21″E
темп.,
°C
ветер,
м/с
пор.,
м/с
влажн.,
%
обл.,
%
осадки,
мм/ч
давл.,
гПа
погр.,
м
19 января, вт
вт1901:00−11з41092100 1.0 1002783
04:00−13з41193100 0.2 1004604
07:00−14зюз41095100 0.4 1006599
10:00−15зюз51093100 0.3 1008870
13:00−18з5991100 0.6 1010812
16:00−20зюз4994100 0.2 1011818
19:00−22з2799100 0.3 1014362
22:00−22з2797100 0.1 1015569
20 января, ср
ср2001:00−24з3793100 0.3 1017626
04:00−25зсз4892100 0.1 1019695
07:00−28з2897100 0.1 1024216
10:00−31з269898 0.0 1028140
13:00−28зюз259482 0.0 1030324
16:00−29зюз229891 0.0 103129
19:00−30зюз129996 0.0 103220
22:00−31зюз1198100 0.0 103321
21 января, чт
чт2101:00−34зюз119992 0.0 103419
04:00−36юз0010011 0.0 103419
07:00−36вюв11996 0.0 103419
10:00−34всв129758 0.0 103229
13:00−30в249479 0.0 1029226
16:00−28в3892100 0.0 1026260
19:00−28в41091100 0.0 1024341
22:00−27в41090100 0.0 1022353
22 января, пт
пт2201:00−26вюв4996100 0.1 1019369
04:00−26в3796100 0.2 1017303
07:00−26в3696100 0.3 1015245
10:00−25в3696100 0.1 1013226
13:00−23в2597100 0.3 1011240
16:00−22в2598100 0.5 1009235
19:00−22в1599100 0.9 1010196
22:00−22вюв1199100 0.3 101038
23 января, сб
сб2301:00−23вюв1199100 0.4 101220
04:00−25ююв11100100 0.1 101420
07:00−24ю1199100 0.1 101420
10:00−22ююз1499100 0.0 1016149
13:00−19юз3695100 0.2 1016501
16:00−19юз3696100 0.3 1016686
19:00−21юз2699100 0.5 1018268
22:00−21зюз2799100 0.2 1019443